Weather in Ashikaga

Japan     36°20′06″N   139°27′07″E
temp.,
°C
wind,
m/s
gust,
m/s
humid.,
%
clouds,
%
prec.,
mm/h
press.,
hPa
HPBL,
m
24 january, mon
mon2400:00+6wnw2339100 0.0 1015108
03:00+5nw2440100 0.0 1013174
06:00+5nw1248100 0.0 101396
09:00+6wnw1348100 0.0 1014358
12:00+8n2334100 0.0 10131029
15:00+10nnw12280 0.0 10121117
18:00+7w24360 0.0 1014301
21:00+4wsw13420 0.0 1017457
25 january, tue
tue2500:00+3wsw12440 0.0 1019333
03:00+2w12440 0.0 1019174
06:00+1wnw01445 0.0 102165
09:00+3ene1142100 0.0 1022441
12:00+6se1234100 0.0 1021887
15:00+6sse2235100 0.0 10201055
18:00+6ene113798 0.0 1021329
21:00+5nne224092 0.0 102158
26 january, wed
wed2600:00+5nne1146100 0.0 1020384
03:00+4wnw1243100 0.0 1019300
06:00+3wnw12448 0.0 1019235
09:00+5n01435 0.0 1019401
12:00+8ne11385 0.0 1017714
15:00+9se11350 0.0 1015902
18:00+8sse12403 0.0 1016102
21:00+7ssw12603 0.0 101654
27 january, thu
thu2700:00+5wnw24551 0.0 1016177
03:00+4wnw25573 0.0 1016185
06:00+3wnw255479 0.0 1017215
09:00+6wnw410391 0.0 1017746
12:00+9wnw58260 0.0 10161251
15:00+9nw69255 0.0 10151135
18:00+7wnw49275 0.0 1017895
21:00+4wnw49370 0.0 1018547
28 january, fri
fri2800:00+3wnw38448 0.0 1017389
03:00+2wnw374688 0.0 1017344
06:00+2wnw35475 0.0 1018249
09:00+3wnw35390 0.0 1018437
12:00+8wnw57231 0.0 10161597
15:00+9nnw462352 0.0 10151942
18:00+7nw232727 0.0 1016155
21:00+4wnw36385 0.0 1016331